Location: Le Coudray
(47.1963°N, 0.1167°W)
Time: 00:19:10
(UTC+00:00)

Daily predictions for brighter satellites

Satellite Brightness Start Highest point End
(mag) Time Altitude Azimuth Time Altitude Azimuth Time Altitude Azimuth
COSMOS 2406 4.3 03:52:21 39° ESE 03:52:21 39° ESE 03:56:08 10° SE
Cosmos 2082 Rocket 3.4 03:52:49 37° NE 03:52:51 37° NE 03:58:02 10° ESE
COSMOS 2455 3.6 03:57:05 47° ESE 03:57:05 47° ESE 04:01:21 10° SE
Cosmos 2278 Rocket 2.5 04:13:39 63° ESE 04:13:39 63° ESE 04:19:08 10° NNE
USA 215 3.1 04:10:58 10° ESE 04:17:30 89° NNE 04:17:51 82° NW
BREEZE M DEB (TANK) 3.9 04:21:18 56° E 04:21:18 56° E 04:23:40 10° ENE
CZ-2C R/B 4.1 04:15:55 10° SE 04:20:54 36° ENE 04:25:50 10° N
Cosmos 540 Rocket 3.8 04:25:25 60° NE 04:25:34 60° ENE 04:30:38 10° SE
Cosmos 2221 4.1 04:32:04 27° SSE 04:32:04 27° SSE 04:34:08 10° SSE
Cosmos 1833 Rocket 3.5 04:34:00 37° S 04:34:00 37° S 04:37:27 10° S
SL-8 R/B 4.0 04:35:05 62° ESE 04:35:05 62° ESE 04:39:16 10° ENE
Cosmos 841 Rocket 3.5 04:48:36 45° N 04:50:11 76° ENE 04:55:20 10° SSE
Cosmos 1763 Rocket 4.4 04:52:50 35° SSW 04:52:50 35° SSW 04:56:04 10° S
SJ-12 4.4 04:54:00 10° NNE 04:58:05 59° E 05:02:10 10° S
Envisat 3.4 04:53:58 10° NNE 04:59:02 61° ESE 05:04:02 10° S
SL-19 R/B 4.1 04:54:31 10° SSE 05:00:12 77° WSW 05:03:26 27° NNW
Cosmos 1076 Rocket 3.5 05:02:37 10° S 05:06:59 82° E 05:11:23 10° N
YAOGAN 6 2.6 05:03:32 10° NNE 05:07:15 80° E 05:10:55 10° S
COSMO-SKYMED 1 2.5 05:07:47 10° SSE 05:12:08 90° E 05:14:38 25° NNW
Cosmos 1867 4.2 05:10:50 23° NNW 05:14:06 54° NE 05:19:27 10° SE
APEX 3.9 05:16:51 30° NE 05:17:12 32° ENE 05:19:50 10° ESE
Cosmos 2084 Rocket 4.4 05:13:40 10° SSW 05:17:18 42° SE 05:20:59 10° NE
Cosmos 1464 Rocket 4.1 05:11:31 10° NNW 05:17:37 51° W 05:23:36 10° SSW
NOSS 3-2 (A) 3.8 05:12:51 10° SSW 05:18:17 61° ESE 05:24:34 10° NE
H-2A R/B 2.4 05:16:33 10° N 05:20:14 79° WNW 05:23:56 10° SSW
Helios 1B 4.5 05:19:33 10° S 05:23:50 62° WSW 05:25:50 30° NNW
CENTAUR R/B 3.2 05:19:22 10° SSW 05:25:01 56° ESE 05:31:47 10° NE
Gbstr 26 Del rocket 2.6 05:28:19 48° WNW 05:29:21 90° NNE 05:33:37 10° ESE
Cosmos 2208 Rocket 4.3 05:24:24 11° NNW 05:29:38 73° ENE 05:35:01 10° SSE
Meteor 2-3 Rocket 3.8 05:25:25 10° S 05:31:02 82° E 05:36:45 10° NNE
Cosmos 1814 Rocket 3.8 05:28:34 18° NNW 05:32:24 79° WSW 05:37:31 10° SSE
Landsat 5 3.5 05:28:09 10° S 05:32:38 71° WSW 05:36:50 12° NNW
COSMOS 2406 4.1 05:34:28 26° WSW 05:34:32 26° WSW 05:39:09 10° SSW
Cosmos 2082 Rocket 2.6 05:34:44 28° WNW 05:36:59 40° WSW 05:42:11 10° S
Meteor 1-26 Rocket 4.3 05:32:21 10° NNW 05:38:25 88° W 05:44:17 10° S
Cosmos 1850 Rocket 4.3 05:35:29 12° SW 05:40:05 44° WNW 05:45:13 10° NNE
COSMOS 2455 3.9 05:40:17 23° W 05:40:42 23° WSW 05:45:16 10° SSW
Cosmos 2297 4.0 05:35:44 10° SSW 05:41:28 74° ESE 05:47:13 10° NNE
CZ-4B R/B 4.0 05:39:07 10° ESE 05:41:39 20° ENE 05:44:11 10° NNE
Kosmos-917 3.8 05:43:21 31° WSW 05:44:28 55° NW 05:49:05 10° NE
USA 238 DEB 4.0 05:43:35 10° SSW 05:49:59 67° SE 05:56:46 10° NE
USA 238 4.0 05:43:42 10° SSW 05:50:05 67° SE 05:56:52 10° NE
OE (NEXTSAT) 4.4 05:49:10 31° W 05:50:35 64° S 05:53:59 10° ESE
Cosmos 1782 2.7 05:49:08 10° NNW 05:53:05 68° W 05:57:00 10° S
NOAA 11 4.2 05:50:03 10° NNE 05:55:32 87° ESE 06:01:01 10° SSW
Cosmos 1862 4.4 05:52:55 10° SSE 05:56:42 46° E 06:00:29 10° NNE
CZ-2C R/B 3.2 05:52:27 10° NNE 05:57:14 69° ESE 06:02:07 10° S
Cosmos 2278 Rocket 3.1 05:55:34 20° W 05:58:03 27° NW 06:02:49 10° N
SKYMED 2 4.4 05:56:33 10° SSW 06:00:21 29° W 06:03:13 15° NW
USA 215 4.2 05:55:25 10° S 06:01:01 30° SW 06:05:12 16° WNW
CZ-2C R/B 3.2 05:56:01 10° SSW 06:01:09 38° W 06:06:13 10° NNW
Cosmos 1943 Rocket 2.1 05:55:50 10° SSW 06:01:31 81° WNW 06:07:14 10° NNE
Okean 3 Rocket 4.3 06:00:33 10° S 06:04:58 58° E 06:09:27 10° NNE
Cosmos 1933 4.1 06:03:36 13° NNW 06:06:40 31° W 06:10:13 10° SSW
Cosmos 2344 3.6 06:00:35 10° WSW 06:07:51 57° NW 06:15:46 10° NE
IRAS Rocket 4.3 06:02:44 10° S 06:08:12 62° WSW 06:13:41 10° NNW
SJ-7 4.4 06:06:49 10° N 06:11:02 65° WNW 06:15:10 10° SSW
ADEOS 3.6 06:06:00 10° N 06:11:10 61° WNW 06:16:18 10° SSW
Meteor 1-31 Rocket 3.6 06:09:25 10° N 06:12:45 28° WNW 06:16:06 10° SW
Iridium 2 3.7 06:12:32 10° SSW 06:16:15 55° W 06:20:00 10° N
SL-8 R/B 3.7 06:13:04 15° W 06:17:06 76° N 06:21:53 10° E
Cosmos 2151 3.8 06:15:38 10° SW 06:19:20 28° WNW 06:23:04 10° NNW
Cosmos 2279 Rocket 3.9 06:14:09 10° NNW 06:20:21 77° W 06:26:31 10° S
Tsikada Rocket 4.4 06:16:27 10° SW 06:22:09 38° WNW 06:27:58 10° N
CZ-4C R/B 4.2 06:20:52 10° SW 06:23:15 19° W 06:25:03 13° NW
Cosmos 1812 2.9 06:21:34 10° NNW 06:25:18 49° W 06:29:01 10° S
Cosmos 1634 Rocket 4.3 06:21:15 10° NNW 06:27:11 45° W 06:33:03 10° SSW
Cosmos 1939 Rocket 2.8 06:28:40 10° N 06:32:40 73° WNW 06:36:35 10° SSW
H-2A R/B 2.2 06:28:50 10° S 06:32:54 51° W 06:37:06 10° NNW
FALCON 9 DEB 3.0 06:32:19 10° SW 06:35:11 68° SSE 06:38:05 10° ENE
SMAP 3.1 06:31:37 10° NNE 06:36:18 87° WNW 06:40:57 10° SSW
Genesis I 3.3 06:32:23 10° NW 06:36:31 76° SW 06:40:34 10° SSE
FALCON 9 R/B 4.5 06:20:24 10° W 06:36:52 36° SSW 06:42:24 10° SE
Envisat 4.2 06:33:52 10° NNW 06:37:37 21° WNW 06:41:20 10° WSW
Meteor 1-27 Rocket 4.3 06:32:08 10° N 06:37:41 63° ENE 06:43:18 10° SSE
Cosmos 1766 Rocket 3.6 06:34:06 10° SSW 06:38:23 57° WNW 06:42:41 10° N
Cosmos 2098 Rocket 3.1 06:35:23 10° SW 06:38:36 39° WNW 06:42:32 10° N
CZ-2D R/B 3.8 06:35:23 10° NNE 06:39:10 62° E 06:42:55 10° S
PSLV R/B 4.0 06:38:57 10° NNE 06:42:48 75° ESE 06:46:43 10° S
Cosmos 2297 Rocket 4.4 06:42:01 10° N 06:45:28 16° NE 06:48:53 10° ENE
FALCON 9 DEB 4.0 06:42:22 10° SW 06:45:39 52° SE 06:48:58 10° ENE
FALCON 9 DEB 2.6 06:46:40 10° WSW 06:49:31 69° NNW 06:52:23 10° ENE
